• Join FlightAware (Why Join?)
  • Login
  • US Flag 
07:12AM EDT


 

Airport Tracker/Info


-or-


 

Live Flight TrackerFlight Track Log ✈ N8414Z ✈ 02-Dec-2013 ✈ KTLH - KAPF

Flight Track Log - Related Links

Times and Time Zones

All times are in EST time to prevent confusion due to time zone crossing. See the N8414Z flight status page for this flight to view local times or setup timezone preferences in your user account.

Time Position Orientation Groundspeed Altitude Reporting Facility
EST Latitude Longitude Course Direction KTS MPH feet Rate Location/Type
09:18PM 30.3438 -84.0780 130° Southeast  Level FlightAware Approximate
09:19PM 30.3171 -84.0406 130° Southeast  Level FlightAware Approximate
09:20PM 30.2908 -84.0028 128° Southeast  Level FlightAware Approximate
09:21PM 30.2652 -83.9643 128° Southeast  Level FlightAware Approximate
09:22PM 30.2396 -83.9259 128° Southeast  Level FlightAware Approximate
09:23PM 30.2139 -83.8875 128° Southeast  Level FlightAware Approximate
09:24PM 30.1883 -83.8491 128° Southeast  Level FlightAware Approximate
09:25PM 30.1622 -83.8111 133° Southeast  Level FlightAware Approximate
09:25PM 30.2375 -83.8881 130° Southeast 164 189 7,100  Level Jacksonville Center
09:26PM 30.1338 -83.7755 133° Southeast  Level FlightAware Approximate
09:26PM 30.2150 -83.8517 126° Southeast 164 189 7,100  Level Jacksonville Center
09:27PM 30.1053 -83.7399 133° Southeast  Level FlightAware Approximate
09:27PM 30.1881 -83.8131 129° Southeast 158 182 7,000  Level Jacksonville Center
09:28PM 30.0769 -83.7043 133° Southeast  Level FlightAware Approximate
09:28PM 30.1611 -83.7767 131° Southeast 158 182 7,000  Level Jacksonville Center
09:29PM 30.0484 -83.6688 133° Southeast  Level FlightAware Approximate
09:29PM 30.1322 -83.7403 133° Southeast 158 182 7,000  Level Jacksonville Center
09:30PM 30.0207 -83.6325 130° Southeast  Level FlightAware Approximate
09:30PM 30.1031 -83.7042 133° Southeast 158 182 7,000  Level Jacksonville Center
09:31PM 30.0764 -83.6631 127° Southeast 158 182 7,000  Level Jacksonville Center
09:32PM 30.0494 -83.6269 131° Southeast 158 182 7,000  Level Jacksonville Center
09:33PM 30.0203 -83.5883 131° Southeast 158 182 7,000  Level Jacksonville Center
09:34PM 29.9933 -83.5519 131° Southeast 158 182 7,000  Level Jacksonville Center
09:35PM 29.9686 -83.5111 125° Southeast 158 182 7,000  Level Jacksonville Center
09:36PM 29.9436 -83.4703 125° Southeast 158 182 7,000  Level Jacksonville Center
09:37PM 29.9231 -83.4269 119° Southeast 158 182 7,000  Level Jacksonville Center
09:38PM 29.9022 -83.3814 118° Southeast 152 175 7,000  Level Jacksonville Center
09:39PM 29.8878 -83.3333 109° East 152 175 7,100  Climbing Jacksonville Center
09:40PM 29.8756 -83.2856 106° East 152 175 7,000  Descending Jacksonville Center
09:41PM 29.8422 -83.2517 139° Southeast 152 175 7,100  Climbing Jacksonville Center
09:42PM 29.8089 -83.2253 146° Southeast 152 175 7,100  Level Jacksonville Center
09:43PM 29.7714 -83.1964 146° Southeast 157 181 7,100  Level Jacksonville Center
09:44PM 29.7358 -83.1678 145° Southeast 157 181 7,100  Level Jacksonville Center
09:44PM 29.7317 -83.1653 152° Southeast 153 176 7,100  Level Jacksonville Center
09:45PM 29.7006 -83.1411 146° Southeast 152 175 7,100  Level Jacksonville Center
09:46PM 29.6650 -83.1125 145° Southeast 152 175 7,100  Level Jacksonville Center
09:47PM 29.6358 -83.0861 142° Southeast 157 181 7,100  Level Jacksonville Center
09:47PM 29.6297 -83.0836 160° South 152 175 7,100  Level Jacksonville Center
09:48PM 29.6025 -83.0575 140° Southeast 152 175 7,100  Level Jacksonville Center
09:48PM 29.5961 -83.0550 161° South 151 174 7,100  Level Jacksonville Center
09:49PM 29.5669 -83.0286 142° Southeast 152 175 7,100  Level Jacksonville Center
09:49PM 29.5608 -83.0239 146° Southeast 152 175 7,100  Level Jacksonville Center
09:50PM 29.5336 -82.9975 140° Southeast 152 175 7,100  Level Jacksonville Center
09:50PM 29.5275 -82.9928 146° Southeast 153 176 7,100  Level Jacksonville Center
09:51PM 29.4983 -82.9761 154° Southeast 152 175 7,100  Level Jacksonville Center
09:52PM 29.4669 -82.9547 149° Southeast 150 173 7,100  Level Jacksonville Center
09:52PM 29.4606 -82.9522 161° South 152 175 7,100  Level Jacksonville Center
09:53PM 29.4253 -82.9283 149° Southeast 147 169 7,100  Level Jacksonville Center
09:54PM 29.3875 -82.9044 151° Southeast 149 171 7,100  Level Jacksonville Center
09:54PM 29.3897 -82.9044 360° North 147 169 7,100  Level Jacksonville Center
09:55PM 29.3500 -82.8806 152° Southeast 148 170 7,100  Level Jacksonville Center
09:55PM 29.3522 -82.8806 360° North 147 169 7,100  Level Jacksonville Center
09:56PM 29.3144 -82.8592 154° Southeast 147 169 7,100  Level Jacksonville Center
09:57PM 29.2789 -82.8356 150° Southeast 148 170 7,100 -60 Level Jacksonville Center
09:58PM 29.2414 -82.8092 148° Southeast 143 165 7,000 -60 Descending Jacksonville Center
09:59PM 29.2122 -82.7903 151° Southeast 145 167 7,000  Level Jacksonville Center
10:00PM 29.1747 -82.7642 149° Southeast 148 170 7,000  Level Jacksonville Center
10:01PM 29.1392 -82.7406 150° Southeast 146 168 7,000  Level Jacksonville Center
10:02PM 29.1036 -82.7192 152° Southeast 145 167 7,000  Level Jacksonville Center
10:03PM 29.0617 -82.6906 149° Southeast 144 166 7,100  Climbing Jacksonville Center
10:04PM 29.0325 -82.6742 154° Southeast 140 161 7,100  Level Jacksonville Center
10:05PM 28.9969 -82.6506 150° Southeast 140 161 7,100  Level Jacksonville Center
10:06PM 28.9656 -82.6292 149° Southeast 140 161 7,100 -60 Level Jacksonville Center
10:07PM 28.9239 -82.6031 151° Southeast 140 161 7,000 -60 Descending Jacksonville Center
10:08PM 28.8947 -82.5842 150° Southeast 144 166 7,000  Level Jacksonville Center
10:09PM 28.8569 -82.5583 149° Southeast 144 166 7,000  Level Jacksonville Center
10:12PM 28.7833 -82.5000 145° Southeast 143 165 7,000  Level Tampa TRACON
10:13PM 28.7500 -82.4833 156° South 141 162 7,000  Level Tampa TRACON
10:14PM 28.7000 -82.4667 164° South 141 162 7,000  Level Tampa TRACON
10:15PM 28.6667 -82.4333 139° Southeast 140 161 7,000  Level Tampa TRACON
10:16PM 28.6333 -82.4167 156° South 142 163 7,000  Level Tampa TRACON
10:17PM 28.6000 -82.4000 156° South 142 163 7,000  Level Tampa TRACON
10:18PM 28.5667 -82.3667 139° Southeast 141 162 7,000  Level Tampa TRACON
10:19PM 28.5333 -82.3500 156° South 140 161 7,000  Level Tampa TRACON
10:20PM 28.5000 -82.3333 156° South 137 158 7,000  Level Tampa TRACON
10:21PM 28.4667 -82.3167 156° South 132 152 7,000  Level Tampa TRACON
10:22PM 28.4333 -82.2833 139° Southeast 129 148 7,000  Level Tampa TRACON
10:23PM 28.4000 -82.2667 156° South 132 152 7,000  Level Tampa TRACON
10:24PM 28.3667 -82.2500 156° South 133 153 7,000  Level Tampa TRACON
10:25PM 28.3500 -82.2333 139° Southeast 133 153 7,000  Level Tampa TRACON
10:26PM 28.3167 -82.2167 156° South 125 144 7,100  Climbing Tampa TRACON
10:27PM 28.2833 -82.1833 139° Southeast 127 146 7,000 -60 Descending Tampa TRACON
10:28PM 28.2500 -82.1667 156° South 128 147 7,000  Level Tampa TRACON
10:29PM 28.2167 -82.1500 156° South 132 152 7,000  Level Tampa TRACON
10:30PM 28.1833 -82.1333 156° South 135 155 7,000  Level Tampa TRACON
10:31PM 28.1361 -82.0997 148° Southeast 100 115 7,000  Level Miami Center
10:32PM 28.1036 -82.0792 151° Southeast 112 129 7,000  Level Miami Center
10:33PM 28.0689 -82.0589 153° Southeast 125 144 7,000  Level Miami Center
10:34PM 28.0403 -82.0386 148° Southeast 125 144 7,000  Level Miami Center
10:35PM 28.0078 -82.0183 151° Southeast 130 150 7,000 -240 Level Miami Center
10:36PM 27.9750 -82.0006 154° Southeast 130 150 6,600 -600 Descending Miami Center
10:37PM 27.9400 -81.9825 155° Southeast 130 150 5,900 -660 Descending Miami Center
10:38PM 27.9053 -81.9644 155° Southeast 130 150 5,300 -600 Descending Miami Center
10:39PM 27.8683 -81.9464 157° South 130 150 4,700 -540 Descending Miami Center
10:40PM 27.8314 -81.9258 154° Southeast 135 155 4,300 -540 Descending Miami Center
10:41PM 27.7900 -81.9169 169° South 143 165 3,700 -600 Descending Miami Center
10:42PM 27.7506 -81.9175 181° South 143 165 3,200 -360 Descending Miami Center
10:43PM 27.7067 -81.9156 178° South 148 170 3,000 -120 Descending Miami Center
10:44PM 27.6694 -81.9069 168° South 143 165 3,000  Level Miami Center
10:45PM 27.6300 -81.9006 172° South 143 165 3,000  Level Miami Center
10:46PM 27.5967 -81.9014 181° South 143 165 3,000  Level Miami Center
10:47PM 27.5611 -81.8975 174° South 135 155 3,000  Level Miami Center
10:48PM 27.5153 -81.8978 180° South 142 163 3,000  Level Miami Center
10:49PM 27.4758 -81.8914 172° South 142 163 3,000  Level Miami Center
10:50PM 27.4383 -81.8875 175° South 142 163 3,000  Level Miami Center
10:51PM 27.4008 -81.8858 178° South 142 163 3,000  Level Miami Center
10:52PM 27.3614 -81.8842 178° South 142 163 3,000  Level Miami Center
10:53PM 27.3219 -81.8800 175° South 142 163 3,000  Level Miami Center
10:54PM 27.2844 -81.8761 175° South 142 163 3,000  Level Miami Center
10:55PM 27.2469 -81.8722 175° South 142 163 3,000  Level Miami Center
10:56PM 27.2094 -81.8681 174° South 142 163 3,000  Level Miami Center
10:57PM 27.1719 -81.8667 178° South 142 163 3,000  Level Miami Center
10:58PM 27.1347 -81.8625 174° South 142 163 3,000  Level Miami Center
10:59PM 27.0972 -81.8586 175° South 142 163 3,000  Level Miami Center
11:00PM 27.0619 -81.8547 174° South 142 163 3,000  Level Miami Center
11:01PM 27.0244 -81.8508 175° South 142 163 3,000  Level Miami Center
11:03PM 26.9787 -81.8460 175° South  Level FlightAware Approximate
11:10PM 26.6960 -81.8163 176° South  Level FlightAware Approximate
11:11PM 26.6556 -81.8130 176° South  Level FlightAware Approximate
11:12PM 26.6151 -81.8096 176° South  Level FlightAware Approximate
11:13PM 26.5747 -81.8062 176° South  Level FlightAware Approximate
11:14PM 26.5342 -81.8028 176° South  Level FlightAware Approximate
11:15PM 26.4938 -81.7995 176° South  Level FlightAware Approximate
11:16PM 26.4534 -81.7961 176° South  Level FlightAware Approximate
11:17PM 26.4129 -81.7927 176° South  Level FlightAware Approximate
11:18PM 26.3725 -81.7894 176° South  Level FlightAware Approximate
11:19PM 26.3320 -81.7860 176° South  Level FlightAware Approximate
11:20PM 26.2917 -81.7813 167° South  Level FlightAware Approximate
11:21PM 26.2522 -81.7714 167° South  Level FlightAware Approximate
11:22PM 26.2121 -81.7667 180° South  Level FlightAware Approximate
11:23PM 26.1715 -81.7667 180° South  Level FlightAware Approximate
11:24PM 26.1500 -81.7667 180° South  Level FlightAware Approximate
11:25PM 26.1524 -81.7756 180° South  Level Estimated
11:26PM 26.1524 -81.7756 180° South  Level Estimated
11:27PM 26.1524 -81.7756 180° South  Level Estimated
11:28PM 26.1524 -81.7756 180° South  Level Estimated
11:29PM 26.1524 -81.7756 180° South  Level Estimated
11:30PM 26.1524 -81.7756 180° South  Level Estimated
11:31PM 26.1524 -81.7756 180° South  Level Estimated
11:32PM 26.1524 -81.7756 180° South  Level Estimated
11:33PM 26.1524 -81.7756 180° South  Level Estimated
11:34PM 26.1524 -81.7756 180° South  Level Estimated
11:35PM 26.1524 -81.7756 180° South  Level Estimated
11:36PM 26.1524 -81.7756 180° South  Level Estimated
11:37PM 26.1524 -81.7756 180° South  Level Estimated
11:38PM 26.1524 -81.7756 180° South  Level Estimated
11:39PM 26.1524 -81.7756 180° South  Level Estimated